Location: Unspecified
(0.0000°N, 0.0000°E)
Time: 03:56:40
(UTC+00:00)

Vanguard 1 - Pass Details

Date: 12 December 2023
Orbit: 653 x 3826 km, 34.3° (Epoch: 22 February)

Event Time Altitude Azimuth Distance (km) Brightness Sun altitude
Rises 12:07:19 0° 232° (SW) 3,000 12.8 66.7°
Reaches altitude 10° 12:09:21 10° 232° (SW) 2,168 12.3 66.6°
Maximum altitude 12:14:08 85° 143° (SE) 878 11.5 66.4°
Drops below altitude 10° 12:21:37 10° 55° (NE) 3,318 12.7 65.9°
Sets 12:25:26 0° 54° (NE) 4,760 13.4 65.7°
